Terug naar catalogus

STARLINK-3395

ActiefCommunicatieVLEO
NORAD 51130·PAYLOAD·🇺🇸 United States

Gelanceerd Jan 19, 2022 vanaf Cape Canaveral Space Force Station

Loading…

Volgende Passages (komende 24 uur)

TLE

VersSource: CelesTrak SupGP

Epoch: Sep 14, 2026, 21:37 UTC

1 51130C 22005AC  26257.90118056 -.00028675  00000+0 -84718-3 0  2578
2 51130  53.1586 163.9727 0001291  93.9290 233.8339 15.34406358    11

Volg STARLINK-3395 in realtime met AllMySat

Download on the App Store